Time,TemperatureF,DewpointF,PressureIn,WindDirection,WindDirectionDegrees,WindSpeedMPH,WindSpeedGustMPH,Humidity,HourlyPrecipIn,Conditions,Clouds,dailyrainin,SolarRadiationWatts/m^2,SoftwareType,DateUTC
2013-03-12 00:00:00,29.1,22.4,29.72,ENE,75,1.0,24.0,76,0.00,-RA,OVC,0.00,0.0,WeatherDisplay:10.37,2013-03-12 00:00:00,
2013-03-12 00:30:00,29.1,22.7,29.71,NE,52,7.0,19.0,77,0.00,-RA,OVC,0.00,0.0,WeatherDisplay:10.37,2013-03-12 00:30:00,
2013-03-12 01:00:00,29.0,22.3,29.72,ENE,57,7.0,23.0,76,0.00,-RA,OVC,0.00,0.0,WeatherDisplay:10.37,2013-03-12 01:00:00,
2013-03-12 01:30:00,29.1,21.8,29.71,NNE,31,9.0,23.0,74,0.00,-RA,OVC,0.00,0.0,WeatherDisplay:10.37,2013-03-12 01:30:00,
2013-03-12 02:00:00,28.7,22.7,29.70,NE,51,3.0,21.0,78,0.00,-RA,OVC,0.00,0.0,WeatherDisplay:10.37,2013-03-12 02:00:00,
2013-03-12 02:30:00,28.8,22.5,29.71,ENE,63,6.0,20.0,77,0.00,-RA,OVC,0.00,0.0,WeatherDisplay:10.37,2013-03-12 02:30:00,
2013-03-12 03:00:00,29.1,22.4,29.70,NE,43,5.0,21.0,76,0.00,-RA,OVC,0.00,0.0,WeatherDisplay:10.37,2013-03-12 03:00:00,
2013-03-12 03:30:00,28.8,22.5,29.70,ENE,65,2.0,22.0,77,0.00,-RA,OVC,0.00,0.0,WeatherDisplay:10.37,2013-03-12 03:30:00,
2013-03-12 04:00:00,29.1,21.5,29.70,NE,44,6.0,20.0,73,0.00,-RA,OVC,0.00,0.0,WeatherDisplay:10.37,2013-03-12 04:00:00,
2013-03-12 04:30:00,29.4,20.8,29.70,ENE,66,9.0,22.0,70,0.00,-RA,OVC,0.00,0.0,WeatherDisplay:10.37,2013-03-12 04:30:00,
2013-03-12 05:00:00,29.6,20.0,29.71,NE,52,6.0,23.0,67,0.00,-RA,OVC,0.00,0.0,WeatherDisplay:10.37,2013-03-12 05:00:00,
2013-03-12 05:30:00,29.9,19.2,29.71,NE,34,3.0,23.0,64,0.00,-RA,OVC,0.00,0.0,WeatherDisplay:10.37,2013-03-12 05:30:00,
2013-03-12 06:00:00,30.0,18.5,29.72,ENE,58,3.0,20.0,62,0.00,-RA,OVC,0.00,0.0,WeatherDisplay:10.37,2013-03-12 06:00:00,
2013-03-12 06:30:00,30.1,18.2,29.72,NE,49,3.0,22.0,61,0.00,-RA,OVC,0.00,0.0,WeatherDisplay:10.37,2013-03-12 06:30:00,
2013-03-12 07:00:00,30.1,17.5,29.74,East,81,10.0,23.0,59,0.00,-RA,OVC,0.00,33.0,WeatherDisplay:10.37,2013-03-12 07:00:00,
2013-03-12 07:30:00,30.3,18.0,29.75,ENE,61,10.0,21.0,60,0.00,-RA,OVC,0.00,46.0,WeatherDisplay:10.37,2013-03-12 07:30:00,
2013-03-12 08:00:00,30.5,18.2,29.75,NE,46,9.0,25.0,60,0.00,-RA,OVC,0.00,107.0,WeatherDisplay:10.37,2013-03-12 08:00:00,
2013-03-12 08:30:00,30.9,18.6,29.76,NNE,28,10.0,22.0,60,0.00,-RA,OVC,0.00,202.0,WeatherDisplay:10.37,2013-03-12 08:30:00,
2013-03-12 09:00:00,31.5,18.4,29.76,ENE,57,6.0,21.0,58,0.00,-RA,OVC,0.00,86.0,WeatherDisplay:10.37,2013-03-12 09:00:00,
2013-03-12 09:30:00,32.7,18.3,29.77,ENE,64,9.0,23.0,55,0.00,-RA,OVC,0.00,345.0,WeatherDisplay:10.37,2013-03-12 09:30:00,
2013-03-12 10:00:00,32.7,17.8,29.77,NE,56,7.0,24.0,54,0.00,-RA,OVC,0.00,299.0,WeatherDisplay:10.37,2013-03-12 10:00:00,
2013-03-12 10:30:00,33.8,18.9,29.77,East,82,6.0,24.0,54,0.00,-RA,OVC,0.00,508.0,WeatherDisplay:10.37,2013-03-12 10:30:00,
2013-03-12 11:00:00,35.3,19.9,29.77,NE,43,3.0,26.0,53,0.00,-RA,OVC,0.00,139.0,WeatherDisplay:10.37,2013-03-12 11:00:00,
2013-03-12 11:30:00,35.6,19.7,29.77,ENE,77,9.0,23.0,52,0.00,-RA,OVC,0.00,318.0,WeatherDisplay:10.37,2013-03-12 11:30:00,
2013-03-12 12:00:00,35.5,18.6,29.77,ENE,60,7.0,20.0,50,0.00,-RA,OVC,0.00,647.0,WeatherDisplay:10.37,2013-03-12 12:00:00,
2013-03-12 12:30:00,37.4,20.0,29.76,ENE,76,5.0,22.0,49,0.00,-RA,OVC,0.00,640.0,WeatherDisplay:10.37,2013-03-12 12:30:00,
2013-03-12 13:00:00,38.6,21.5,29.76,NE,55,6.0,20.0,50,0.00,-RA,OVC,0.00,171.0,WeatherDisplay:10.37,2013-03-12 13:00:00,
2013-03-12 13:30:00,37.8,21.2,29.76,NE,41,6.0,17.0,51,0.00,-RA,OVC,0.00,612.0,WeatherDisplay:10.37,2013-03-12 13:30:00,
2013-03-12 14:00:00,39.0,22.3,29.75,NNE,14,7.0,16.0,51,0.00,-RA,OVC,0.00,550.0,WeatherDisplay:10.37,2013-03-12 14:00:00,
2013-03-12 14:30:00,38.9,20.3,29.75,NE,54,5.0,22.0,47,0.00,-RA,OVC,0.00,483.0,WeatherDisplay:10.37,2013-03-12 14:30:00,
2013-03-12 15:00:00,39.8,21.7,29.75,NE,55,8.0,20.0,48,0.00,-RA,OVC,0.00,473.0,WeatherDisplay:10.37,2013-03-12 15:00:00,
2013-03-12 15:30:00,40.2,22.5,29.75,NE,39,6.0,20.0,49,0.00,-RA,OVC,0.00,408.0,WeatherDisplay:10.37,2013-03-12 15:30:00,
2013-03-12 16:00:00,39.4,23.2,29.74,ENE,60,3.0,17.0,52,0.00,-RA,OVC,0.00,132.0,WeatherDisplay:10.37,2013-03-12 16:00:00,
2013-03-12 16:30:00,39.0,24.1,29.75,NE,45,1.0,20.0,55,0.00,-RA,OVC,0.00,98.0,WeatherDisplay:10.37,2013-03-12 16:30:00,
2013-03-12 17:00:00,38.3,24.8,29.75,NE,35,3.0,17.0,58,0.00,-RA,OVC,0.00,58.0,WeatherDisplay:10.37,2013-03-12 17:00:00,
2013-03-12 17:30:00,38.1,26.6,29.76,North,10,6.0,20.0,63,0.00,-RA,OVC,0.00,16.0,WeatherDisplay:10.37,2013-03-12 17:30:00,
2013-03-12 18:00:00,37.1,28.5,29.76,North,351,3.0,16.0,71,0.00,-RA,OVC,0.00,0.0,WeatherDisplay:10.37,2013-03-12 18:00:00,
2013-03-12 18:30:00,36.8,28.9,29.76,North,350,5.0,14.0,73,0.00,-RA,OVC,0.00,0.0,WeatherDisplay:10.37,2013-03-12 18:30:00,
2013-03-12 19:00:00,36.8,29.2,29.76,North,358,1.0,12.0,74,0.00,-RA,OVC,0.00,0.0,WeatherDisplay:10.37,2013-03-12 19:00:00,
2013-03-12 19:30:00,36.5,29.9,29.76,NNE,33,1.0,9.0,77,0.00,-RA,OVC,0.00,0.0,WeatherDisplay:10.37,2013-03-12 19:30:00,
2013-03-12 20:00:00,36.1,30.2,29.77,North,351,3.0,12.0,79,0.00,-RA,OVC,0.00,0.0,WeatherDisplay:10.37,2013-03-12 20:00:00,
2013-03-12 20:30:00,36.2,30.6,29.77,North,359,2.0,12.0,80,0.00,-RA,OVC,0.00,0.0,WeatherDisplay:10.37,2013-03-12 20:30:00,
2013-03-12 21:00:00,36.1,30.9,29.77,NNE,12,2.0,9.0,81,0.00,-RA,OVC,0.00,0.0,WeatherDisplay:10.37,2013-03-12 21:00:00,
2013-03-12 21:30:00,36.1,30.8,29.77,NNW,348,1.0,7.0,81,0.00,-RA,OVC,0.00,0.0,WeatherDisplay:10.37,2013-03-12 21:30:00,
2013-03-12 22:00:00,36.1,31.1,29.77,NNW,348,0.0,7.0,82,0.00,-RA,OVC,0.00,0.0,WeatherDisplay:10.37,2013-03-12 22:00:00,
2013-03-12 22:30:00,36.2,31.8,29.77,NNE,14,1.0,9.0,84,0.00,-RA,OVC,0.00,0.0,WeatherDisplay:10.37,2013-03-12 22:30:00,
2013-03-12 23:00:00,36.1,32.0,29.76,NNE,16,1.0,7.0,85,0.00,-RA,OVC,0.00,0.0,WeatherDisplay:10.37,2013-03-12 23:00:00,
2013-03-12 23:30:00,36.1,32.3,29.76,NNW,330,2.0,9.0,86,0.00,-RA,OVC,0.00,0.0,WeatherDisplay:10.37,2013-03-12 23:30:00,